Florence, Italy

2:38 PM CEST on September 29, 2016 (GMT +0200)
Peretola

Weather History for LIRQ - March, 2013

Change the Weather History Date:

Monday, March 4, 2013

  Actual Average Record
Temperature  
Mean Temperature 49 °F -  
Max Temperature 66 °F 55 °F 71 °F (2007)
Min Temperature 32 °F 40 °F 30 °F (2004)
Degree Days  
Heating Degree Days 16    
Moisture  
Dew Point 32 °F    
Average Humidity 65    
Maximum Humidity 100    
Minimum Humidity 14    
Precipitation  
Precipitation 0.00 in - - ()
Sea Level Pressure  
Sea Level Pressure 30.10 in    
Wind  
Wind Speed 2 mph ()    
Max Wind Speed 7 mph    
Max Gust Speed -    
Averages and records for this station are not official NWS values.
T = Trace of Precipitation, MM = Missing Value Source: Averaged Metar Reports

Daily Weather History Graph

Daily Weather History Graph

Search for Another Location

Airport or City:

Trip Planner

Search our weather history database for the weather conditions in past years. The results will help you decide how hot, cold, wet, or windy it might be!

Date:

Astronomy

Mar. 04, 2013 Rise Set
Actual Time 6:46 AM CET 6:07 PM CET
Civil Twilight 6:18 AM CET 6:36 PM CET
Nautical Twilight 5:44 AM CET 7:09 PM CET
Astronomical Twilight 5:11 AM CET 7:43 PM CET
Moon 12:45 AM CET (3/4) 10:26 AM CET (3/4)
Length of Visible Light 12h 18m
Length of Day
11h 20m
Waning Gibbous, 55% of the Moon is Illuminated
Mar 4
Waning Gibbous
Mar 4
Last Quarter
Mar 11
New
Mar 19
First Quarter
Mar 27
Full

Hourly Weather History & Observations

Time (CET) Temp. Windchill Dew Point Humidity Pressure Visibility Wind Dir Wind Speed Gust Speed Precip Events Conditions
12:20 AM 37.4 °F - 33.8 °F 87% 30.06 in - Variable 2.3 mph - N/A   Clear
12:50 AM 37.4 °F - 35.6 °F 93% 30.06 in - Calm Calm - N/A   Clear
1:20 AM 35.6 °F - 33.8 °F 93% 30.09 in - East 2.3 mph - N/A   Clear
1:50 AM 35.6 °F - 33.8 °F 93% 30.09 in - Variable 1.2 mph - N/A   Clear
2:20 AM 35.6 °F 32.8 °F 33.8 °F 93% 30.09 in - NE 3.5 mph - N/A   Clear
2:50 AM 33.8 °F - 32.0 °F 93% 30.09 in - Variable 2.3 mph - N/A   Clear
3:20 AM 33.8 °F - 33.8 °F 100% 30.09 in - Variable 2.3 mph - N/A   Clear
3:50 AM 33.8 °F - 32.0 °F 93% 30.06 in - Calm Calm - N/A   Clear
4:20 AM 33.8 °F - 33.8 °F 100% 30.06 in - Variable 2.3 mph - N/A   Clear
4:50 AM 33.8 °F - 32.0 °F 93% 30.09 in - Calm Calm - N/A   Clear
5:20 AM 32.0 °F - 30.2 °F 93% 30.09 in - Variable 2.3 mph - N/A   Clear
5:50 AM 32.0 °F - 30.2 °F 93% 30.09 in - Calm Calm - N/A   Clear
6:20 AM 32.0 °F - 32.0 °F 100% 30.09 in - Variable 1.2 mph - N/A   Clear
6:50 AM 32.0 °F - 32.0 °F 100% 30.09 in - Calm Calm - N/A   Clear
7:20 AM 33.8 °F - 32.0 °F 93% 30.09 in - Calm Calm - N/A   Clear
7:50 AM 33.8 °F - 32.0 °F 93% 30.12 in - Calm Calm - N/A   Clear
8:20 AM 37.4 °F - 35.6 °F 93% 30.12 in - Calm Calm - N/A   Clear
8:50 AM 41.0 °F - 33.8 °F 76% 30.12 in - Calm Calm - N/A   Clear
9:20 AM 42.8 °F - 35.6 °F 76% 30.12 in - Calm Calm - N/A   Clear
9:50 AM 44.6 °F - 35.6 °F 71% 30.12 in - Variable 1.2 mph - N/A   Clear
10:20 AM 46.4 °F - 37.4 °F 71% 30.12 in - Variable 1.2 mph - N/A   Clear
10:50 AM 50.0 °F - 37.4 °F 62% 30.12 in - Variable 1.2 mph - N/A   Clear
11:20 AM 51.8 °F - 37.4 °F 58% 30.12 in - Variable 2.3 mph - N/A   Clear
11:50 AM 55.4 °F - 37.4 °F 51% 30.12 in - Variable 2.3 mph - N/A   Clear
12:20 PM 57.2 °F - 37.4 °F 48% 30.12 in - Variable 2.3 mph - N/A   Clear
12:50 PM 59.0 °F - 35.6 °F 42% 30.09 in - Variable 2.3 mph - N/A   Clear
1:20 PM 62.6 °F - 35.6 °F 37% 30.09 in - Variable 1.2 mph - N/A   Clear
1:50 PM 62.6 °F - 26.6 °F 26% 30.09 in - Variable 3.5 mph - N/A   Clear
2:20 PM 64.4 °F - 21.2 °F 19% 30.06 in - Variable 2.3 mph - N/A   Clear
2:50 PM 66.2 °F - 23.0 °F 19% 30.06 in - Variable 1.2 mph - N/A   Clear
3:20 PM 66.2 °F - 21.2 °F 18% 30.06 in - West 3.5 mph - N/A   Clear
3:50 PM 66.2 °F - 15.8 °F 14% 30.06 in - Variable 2.3 mph - N/A   Clear
4:20 PM 66.2 °F - 17.6 °F 15% 30.06 in - Variable 2.3 mph - N/A   Clear
4:50 PM 66.2 °F - 17.6 °F 15% 30.06 in - Variable 2.3 mph - N/A   Clear
5:20 PM 64.4 °F - 24.8 °F 22% 30.06 in - Variable 2.3 mph - N/A   Clear
5:50 PM 59.0 °F - 33.8 °F 39% 30.06 in - NNE 6.9 mph - N/A   Clear
6:20 PM 59.0 °F - 33.8 °F 39% 30.06 in - North 4.6 mph - N/A   Clear
6:50 PM 57.2 °F - 33.8 °F 41% 30.06 in - Variable 1.2 mph - N/A   Clear
7:20 PM 53.6 °F - 35.6 °F 51% 30.09 in - South 6.9 mph - N/A   Clear
7:50 PM 51.8 °F - 35.6 °F 54% 30.09 in - Variable 2.3 mph - N/A   Clear
8:20 PM 51.8 °F - 35.6 °F 54% 30.12 in - SSW 3.5 mph - N/A   Clear
8:50 PM 50.0 °F - 35.6 °F 58% 30.12 in - South 3.5 mph - N/A   Clear
9:20 PM 46.4 °F - 35.6 °F 66% 30.15 in - Variable 2.3 mph - N/A   Clear
9:50 PM 42.8 °F 40.1 °F 33.8 °F 70% 30.15 in - ENE 4.6 mph - N/A   Clear
10:20 PM 42.8 °F 39.3 °F 35.6 °F 76% 30.15 in - East 5.8 mph - N/A   Clear
10:50 PM 42.8 °F 38.6 °F 35.6 °F 76% 30.18 in - East 6.9 mph - N/A   Clear
11:20 PM 42.8 °F 38.6 °F 35.6 °F 76% 30.15 in - ESE 6.9 mph - N/A   Clear
11:50 PM 42.8 °F 41.1 °F 33.8 °F 70% 30.15 in - East 3.5 mph - N/A   Clear